Accueil
METAR-TAF:

METAR-TAF

Aéroports :

Turin, Italie

latitude: 45-05-20N, longitude: 007-36-20E, altitude: 288 m

Observation

Le bulletin a été fait il y a 41 minutes, à 16:50 UTC
Vent 3 kt de nord/nord-est, variant entre nord-ouest et est
Température 31°C
Humidité 49%
Pression 1010 hPa
Visibilité 10 km ou plus
Quelques nuages à une hauteur de 4000 ft

METAR: LIMA 251650Z 03003KT 320V100 9999 FEW040 31/19 Q1010

Heure: 19:31 (17:31 UTC)


TAF: absent

Observations et prévisions météorologiques de plus de 4000 aéroports (messages METAR et TAF).

Les stations disponibles sont représentées par des disques jaunes et rouges sur la carte.

Passer la souris dessus pour voir le nom de la station.

Cliquer dessus pour voir les observations et prévisions météorologiques.

Pour changer de carte: cliquez sur les boutons verts avec une croix noire pour zoomer, sur le bouton vert avec un tiret pour effectuer un zoom arrière, ou sur les flèches vertes pour les cartes adjacentes.


METAR-TAF: